Regional Weather Roundup
Issued by NWS

Home | Current Version | Previous Version | Graphics & Text | Print | Product List | Glossary On
Versions: 1 2 3 4 5 6 7 8 9 10 11 12 13 14 15 16 17 18 19 20 21 22 23 24 25 26 27 28 29 30 31 32 33 34 35 36 37 38 39 40 41 42 43 44 45 46 47 48 49 50
000
ASUS43 KBIS 220110
RWRND
NORTH DAKOTA REGIONAL WEATHER ROUNDUP
NATIONAL WEATHER SERVICE EASTERN NORTH DAKOTA/GRAND FORKS ND
800 PM CDT SAT APR 21 2018

  NOTE: "FAIR" INDICATES FEW OR NO CLOUDS BELOW 12,000 FEET WITH NO
  SIGNIFICANT WEATHER AND/OR OBSTRUCTIONS TO VISIBILITY.

NDZ001>003-009>011-017-220200-
...NORTHWEST NORTH DAKOTA...

CITY           SKY/WX    TMP DP  RH WIND       PRES   REMARKS
WILLISTON      FAIR      67  37  33 S17G23    29.94F
MINOT          FAIR      59  37  44 SE16G25   30.05S
MINOT AFB      FAIR      58  39  49 S18       30.03F
$$

NDZ018>021-031>035-040>046-220200-
...SOUTHWEST NORTH DAKOTA...

CITY           SKY/WX    TMP DP  RH WIND       PRES   REMARKS
BISMARCK       FAIR      55  36  48 S17G26    30.16R
DICKINSON      FAIR      55  37  50 S21G29    30.03F
GARRISON         N/A     51  36  56 S14       30.08S
HETTINGER      FAIR      51  36  56 SE17G26   30.10S
$$

NDZ004>008-012>016-024-026-027-054-220200-
...NORTHEAST NORTH DAKOTA...

CITY           SKY/WX    TMP DP  RH WIND       PRES   REMARKS
GRAND FORKS    FAIR      54  45  71 S6        30.23F
GRAND FORKS AF FAIR      55  44  68 SE8       30.23F
DEVILS LAKE    FAIR      55  38  52 S13       30.18F
$$

NDZ022-023-025-028>030-036>039-047>053-220200-
...SOUTHEAST NORTH DAKOTA...

CITY           SKY/WX    TMP DP  RH WIND       PRES   REMARKS
JAMESTOWN      FAIR      53  36  52 S9        30.20F
FARGO          FAIR      57  40  52 SE10      30.25S
WAHPETON       FAIR      54  41  62 S10       30.28S
$$




USA.gov is the U.S. government's official web portal to all federal, state and local government web resources and services.